Station LDTM4 - 9087023 - Ludington, MI Image indicating link to RSS feed of recent meteorological observations for station LDTM4


Conditions at LDTM4 as of
(10:18 am EDT)
1418 GMT on 07/22/2024:
     

Click on the graph icon in the table below to see a time series plot of the last five days of that observation.

5-day plot - Wind Direction Wind Direction (WDIR): W ( 280 deg true )
5-day plot - Wind Speed Wind Speed (WSPD): 5.1 kts
5-day plot - Wind Gust Wind Gust (GST): 7.0 kts
5-day plot - Air Temperature Air Temperature (ATMP): 69.3 °F
5-day plot - Dew Point Dew Point (DEWP): 59.4 °F
5-day plot - Wind Speed at 10 Meters Wind Speed at 10 meters (WSPD10M): 5.8 kts
5-day plot - Wind Speed at 20 Meters Wind Speed at 20 meters (WSPD20M): 5.8 kts
5-day plot -  Wind Speed, Wind Gust and Atmospheric Pressure Combined plot of Wind Speed, Gust, and Air Pressure
NOS Water Level Observation Network Water Level
Previous observations
TIME
(EDT)
5-day plot - Wind Direction
WDIR
 
5-day plot - Wind Speed
WSPD
kts
5-day plot - Wind Gust
GST
kts
5-day plot - Wave Height
WVHT
ft
5-day plot - Dominant Wave Period
DPD
sec
5-day plot - Average Wave Period
APD
sec
5-day plot - Mean Wave Direction
MWD
 
5-day plot - Atmospheric Pressure
PRES
in
5-day plot - Pressure Tendency
PTDY
in
5-day plot - Air Temperature
ATMP
°F
5-day plot - Water Temperature
WTMP
°F
5-day plot - Dew Point
DEWP
°F
5-day plot - Salinity
SAL
psu
5-day plot - Visibility
VIS
nmi
5-day plot - Tide (above MLLW)
TIDE
ft
2024-07-22 10:12 am W 4.1 6.0------ 69.4- 59.4---
2024-07-22 10:06 am W 2.9 5.1------ 69.4- 59.5---
2024-07-22 10:00 am W 1.9 5.1------ 69.3- 59.4---
2024-07-22 09:54 amWSW 1.0 2.9------ 69.8- 59.7---
2024-07-22 09:48 am W 1.0 4.1------ 69.6- 59.7---
2024-07-22 09:42 amWSW 1.9 4.1------ 69.4- 58.8---
2024-07-22 09:36 amWSW 1.0 1.9------ 70.0- 59.0---
2024-07-22 09:30 am SW 1.0 1.9------ 70.0- 59.2---
2024-07-22 09:24 am- 0.0 2.9------ 69.6- 59.0---
2024-07-22 09:18 amSSW 1.0 1.9------ 70.2- 59.2---
2024-07-22 09:12 amSSW 1.0 1.9------ 69.8- 59.4---
2024-07-22 09:06 am SW 1.0 1.9------ 69.4- 59.2---
2024-07-22 09:00 amSSW 1.0 1.9------ 69.6- 58.8---
2024-07-22 08:54 am S 1.0 1.9------ 68.7- 58.5---
2024-07-22 08:48 am S 1.9 2.9------ 67.8- 59.2---
2024-07-22 08:42 am S 1.9 2.9------ 67.8- 60.4---
2024-07-22 08:36 am- 0.0 1.9------ 67.1- 60.8---
2024-07-22 08:30 am- 0.0 1.9------ 66.2- 60.6---
2024-07-22 08:24 amENE 1.0 1.9------ 65.5- 60.3---
2024-07-22 08:18 am NE 1.9 2.9------ 64.9- 60.1---
2024-07-22 08:12 am E 1.9 2.9------ 64.6- 60.1---
2024-07-22 08:06 am E 1.9 2.9------ 64.2- 59.9---
2024-07-22 08:00 amENE 1.0 2.9------ 63.9- 59.9---
2024-07-22 07:54 am E 2.9 4.1------ 63.1- 59.2---
2024-07-22 07:48 amENE 1.9 2.9------------
2024-07-22 07:42 am E 1.9 2.9------ 62.6- 59.2---
2024-07-22 07:36 amENE 1.9 2.9------ 62.1- 58.6---
2024-07-22 07:30 am E 2.9 4.1------ 61.7- 58.3---
2024-07-22 07:24 am E 2.9 4.1------ 61.3- 58.1---
2024-07-22 07:18 amENE 2.9 4.1------------
2024-07-22 07:12 am E 1.9 4.1------ 61.0- 57.9---
2024-07-22 07:06 amENE 2.9 5.1------ 60.6- 57.6---
2024-07-22 07:00 am E 1.9 5.1------ 60.6- 57.6---
2024-07-22 06:54 amENE 2.9 4.1------ 60.1- 57.0---
2024-07-22 06:48 am E 2.9 4.1------ 60.1- 57.0---
2024-07-22 06:42 amENE 2.9 4.1------ 60.1- 56.8---
2024-07-22 06:36 am E 1.9 2.9------ 60.1- 56.8---
2024-07-22 06:30 am E 1.9 2.9------ 60.3- 57.0---
2024-07-22 06:24 am E 1.9 2.9------ 60.4- 57.0---
2024-07-22 06:18 amENE 1.9 1.9------ 60.3- 57.0---
2024-07-22 06:12 amENE 1.0 2.9------ 60.1- 56.8---
2024-07-22 06:06 am E 2.9 2.9------ 60.1- 56.7---
2024-07-22 06:00 am E 1.9 2.9------ 60.4- 57.0---
2024-07-22 05:54 am E 1.9 1.9------ 60.6- 57.0---
2024-07-22 05:48 am E 1.0 1.9------ 60.8- 57.2---
2024-07-22 05:42 am E 1.9 1.9------ 60.6- 56.8---
2024-07-22 05:36 amENE 1.0 1.9------ 60.8- 57.0---
2024-07-22 05:30 amENE 1.9 2.9------ 61.0- 57.2---
2024-07-22 05:24 am E 1.9 1.9------ 61.2- 57.2---
2024-07-22 05:18 amENE 1.0 2.9------ 61.2- 57.0---
2024-07-22 05:12 amENE 1.9 2.9------ 61.2- 57.0---
2024-07-22 05:06 am E 1.0 1.9------ 61.5- 57.4---
2024-07-22 05:00 am E 1.9 2.9------ 61.7- 57.4---
2024-07-22 04:54 am E 1.0 1.9------ 61.9- 57.6---
2024-07-22 04:48 am E 1.9 1.9------ 61.7- 57.2---
2024-07-22 04:42 am NE 1.9 1.9------ 61.9- 57.2---
2024-07-22 04:36 amENE 1.9 1.9------ 62.1- 57.0---
2024-07-22 04:30 amESE 1.0 1.9------ 63.0- 57.6---
2024-07-22 04:24 am E 1.9 1.9------ 62.6- 57.2---
2024-07-22 04:18 amENE 1.9 2.9------------
2024-07-22 04:12 am E 1.9 2.9------ 63.3- 57.2---
2024-07-22 04:06 am NE 1.9 2.9------ 63.5- 57.6---
2024-07-22 04:00 am- 0.0 1.9------ 63.5- 58.1---
2024-07-22 03:54 amENE 1.9 2.9------ 63.5- 57.9---
2024-07-22 03:48 amNNE 1.9 4.1------------
2024-07-22 03:42 am N 1.9 4.1------ 63.1- 57.9---
2024-07-22 03:36 amNNE 1.9 2.9------ 63.3- 58.5---
2024-07-22 03:30 am N 1.9 1.9------ 63.1- 58.3---
2024-07-22 03:24 am- 0.0 1.9------ 63.5- 58.8---
2024-07-22 03:18 amNNW 1.0 1.9------ 63.5- 58.8---
2024-07-22 03:12 am- 0.0 1.0------ 63.5- 59.0---
2024-07-22 03:06 amENE 1.0 1.9------ 63.7- 59.2---
2024-07-22 03:00 amNNE 1.0 1.9------ 63.5- 59.0---
2024-07-22 02:54 am N 1.0 1.9------ 63.5- 59.0---
2024-07-22 02:48 am N 1.0 1.9------------
2024-07-22 02:42 amNNE 1.9 1.9------ 63.3- 59.2---
2024-07-22 02:36 am- 0.0 1.9------ 63.7- 59.7---
2024-07-22 02:30 amESE 1.9 1.9------ 63.3- 59.4---
2024-07-22 02:24 amENE 1.0 1.9------ 63.5- 59.7---
2024-07-22 02:18 am E 1.0 1.9------ 63.3- 59.5---
2024-07-22 02:12 amENE 1.9 2.9------ 63.1- 59.2---
2024-07-22 02:06 amENE 1.9 2.9------ 63.3- 59.2---
2024-07-22 02:00 amENE 1.9 2.9------ 63.9- 59.5---
2024-07-22 01:54 am E 1.9 2.9------ 63.9- 59.4---
2024-07-22 01:48 am E 1.9 2.9------ 64.2- 59.9---
2024-07-22 01:42 am E 1.9 2.9------ 64.2- 59.7---
2024-07-22 01:36 amENE 1.9 1.9------ 64.2- 59.7---
2024-07-22 01:30 amENE 1.9 1.9------ 64.4- 59.9---
2024-07-22 01:24 amENE 1.9 1.9------ 64.2- 59.5---
2024-07-22 01:18 amENE 1.9 2.9------ 64.4- 59.5---
2024-07-22 01:12 am E 1.9 1.9------ 65.3- 60.1---
2024-07-22 01:06 am E 1.0 1.9------ 65.7- 60.3---
2024-07-22 01:00 am- 0.0 1.9------ 65.8- 60.3---
2024-07-22 12:54 am- 0.0 0.0------ 65.7- 60.4---
2024-07-22 12:48 am- 0.0 1.0------ 65.7- 60.1---
2024-07-22 12:42 am- 0.0 1.0------ 65.7- 60.1---
2024-07-22 12:36 am- 0.0 1.0------ 66.2- 60.3---
2024-07-22 12:30 am--------- 66.2- 60.3---
2024-07-22 12:24 am--------- 66.4- 60.3---
2024-07-22 12:18 am- 0.0 1.0------ 66.4- 60.3---
2024-07-22 12:12 am- 0.0 1.0------ 66.4- 60.1---
2024-07-22 12:06 am E 1.0 1.9------ 66.6- 60.3---
2024-07-22 12:00 am- 0.0 1.0------ 66.6- 60.3---
2024-07-21 11:54 pm E 1.0 1.9------ 66.7- 60.1---
2024-07-21 11:48 pmENE 1.9 2.9------------
2024-07-21 11:42 pm E 1.9 1.9------------
2024-07-21 11:36 pm- 0.0 1.9------------
2024-07-21 11:30 pm- 0.0 1.0------ 67.6- 60.1---
2024-07-21 11:24 pm- 0.0 1.0------ 67.3- 59.9---
2024-07-21 11:18 pm E 1.0 1.9------ 67.6- 59.7---
2024-07-21 11:12 pm- 0.0 1.0------ 68.0- 59.7---
2024-07-21 11:06 pm NE 1.0 1.9------ 68.0- 59.5---
2024-07-21 11:00 pmENE 1.9 1.9------ 68.4- 59.7---
2024-07-21 10:54 pm- 0.0 1.0------ 69.3- 59.5---
2024-07-21 10:48 pm- 0.0 1.9------------
2024-07-21 10:42 pmNNW 1.0 1.9------ 69.6- 59.2---
2024-07-21 10:36 pm N 1.0 2.9------ 69.6- 59.0---
2024-07-21 10:30 pm N 1.0 2.9------ 70.0- 59.2---
2024-07-21 10:24 pmNNW 1.9 4.1------ 70.2- 59.0---
2024-07-21 10:18 pm NW 1.9 2.9------ 70.3- 59.2---
2024-07-21 10:12 pmNNW 1.9 4.1------ 70.3- 59.0---
2024-07-21 10:06 pmNNW 1.9 1.9------ 70.7- 59.2---
2024-07-21 10:00 pmNNW 1.0 2.9------ 70.7- 59.4---
2024-07-21 09:54 pmNNW 1.0 2.9------ 70.9- 59.7---
2024-07-21 09:42 pm NW 2.9 5.1------ 71.1- 59.4---
2024-07-21 09:36 pm NW 1.0 4.1------ 71.2- 59.4---
2024-07-21 09:30 pm NW 1.0 5.1------ 71.2- 59.2---
2024-07-21 09:24 pm NW 1.9 4.1------ 71.6- 59.2---
2024-07-21 09:18 pmNNW 1.9 4.1------------
2024-07-21 09:12 pmNNW 2.9 4.1------------
2024-07-21 09:06 pmNNW 1.9 5.1------------
2024-07-21 09:00 pmNNW 2.9 6.0------------
2024-07-21 08:54 pmNNW 2.9 5.1------------
2024-07-21 08:48 pm NW 2.9 7.0------ 72.7- 60.3---
2024-07-21 08:42 pm NW 1.9 6.0------ 72.9- 60.3---
2024-07-21 08:36 pm NW 4.1 7.0------ 72.9- 60.3---
2024-07-21 08:30 pm NW 4.1 5.1------ 73.4- 60.4---
2024-07-21 08:24 pm NW 2.9 5.1------ 73.8- 60.6---
2024-07-21 08:18 pm NW 4.1 6.0------------
2024-07-21 08:12 pmNNW 2.9 6.0------------
2024-07-21 08:06 pm N 5.1 7.0------------
2024-07-21 08:00 pmNNW 4.1 7.0------ 74.5- 59.2---
2024-07-21 07:54 pm N 1.9 7.0------ 74.8- 59.2---
2024-07-21 07:48 pm N 4.1 6.0------------
2024-07-21 07:42 pm N 2.9 7.0------------
2024-07-21 07:36 pm N 4.1 8.0------------
2024-07-21 07:30 pm N 5.1 8.0------ 74.8- 58.3---
2024-07-21 07:24 pmNNW 2.9 8.9------ 75.6- 58.3---
2024-07-21 07:18 pmNNW 2.9 6.0------ 75.9- 59.2---
2024-07-21 07:12 pm N 2.9 6.0------ 76.3- 59.2---
2024-07-21 07:06 pmNNE 4.1 7.0------ 75.9- 58.8---
2024-07-21 07:00 pmNNW 2.9 7.0------------
2024-07-21 06:54 pmNNE 1.9 7.0------------
2024-07-21 06:48 pmNNW 2.9 7.0------ 76.3- 58.5---
2024-07-21 06:42 pm N 4.1 7.0------ 76.3- 58.6---
2024-07-21 06:36 pm N 2.9 7.0------ 76.5- 57.9---
2024-07-21 06:30 pm--------- 75.7- 57.7---
2024-07-21 06:24 pm--------- 75.9- 56.3---
2024-07-21 06:18 pm N 2.9 8.0------ 76.1- 56.5---
2024-07-21 06:12 pm N 6.0 8.9------ 75.4- 57.0---
2024-07-21 06:06 pmNNE 5.1 8.9------ 75.9- 58.3---
2024-07-21 06:00 pmNNE 5.1 8.9------ 75.6- 58.3---
2024-07-21 05:54 pm NW 4.1 8.0------ 76.5- 58.1---
2024-07-21 05:48 pmNNE 4.1 8.9------ 75.9- 59.2---
2024-07-21 05:42 pm N 1.9 8.0------ 76.3- 60.4---
2024-07-21 05:36 pm NW 5.1 8.9------ 75.9- 61.2---
2024-07-21 05:30 pmNNW 6.0 8.0------------
2024-07-21 05:24 pmNNW 5.1 9.9------------
2024-07-21 05:18 pm--------- 75.7- 59.4---
2024-07-21 05:12 pm--------- 76.1- 59.4---
2024-07-21 05:06 pm--------- 75.2- 58.3---
2024-07-21 05:00 pm N 6.0 9.9------ 75.2- 58.6---
2024-07-21 04:54 pmNNW 7.0 11.1------ 75.2- 58.6---
2024-07-21 04:48 pm N 4.1 11.1------ 75.7- 58.5---
2024-07-21 04:42 pm NW 4.1 8.0------ 76.8- 59.4---
2024-07-21 04:36 pmNNW 5.1 8.9------ 76.5- 58.8---
2024-07-21 04:30 pm--------- 76.5- 58.3---
2024-07-21 04:24 pm--------- 75.4- 58.1---
2024-07-21 04:18 pmNNW 8.0 13.0------------
2024-07-21 04:12 pmNNW 6.0 14.0------ 75.2- 57.6---
2024-07-21 04:06 pmNNW 8.0 11.1------ 75.0- 55.8---
2024-07-21 04:00 pm--------- 75.4- 57.6---
2024-07-21 03:54 pm--------- 74.5- 57.0---
2024-07-21 03:48 pmNNW 8.0 12.0------ 74.8- 57.6---
2024-07-21 03:42 pmNNW 7.0 11.1------ 75.2- 57.2---
2024-07-21 03:36 pm NW 5.1 9.9------ 75.7- 57.4---
2024-07-21 03:30 pmNNW 7.0 11.1------ 75.4- 57.2---
2024-07-21 03:24 pmNNW 6.0 11.1------ 75.2- 58.1---
2024-07-21 03:18 pmNNW 5.1 9.9------ 75.7- 58.5---
2024-07-21 03:12 pm NW 7.0 9.9------ 75.6- 58.6---
2024-07-21 03:06 pm NW 5.1 8.9------ 75.9- 59.5---
2024-07-21 03:00 pmWNW 5.1 11.1------ 76.3- 60.1---
2024-07-21 02:54 pm NW 5.1 8.0------ 76.8- 61.0---
2024-07-21 02:48 pmWNW 5.1 8.9------ 76.6- 61.9---
2024-07-21 02:42 pmNNW 8.0 9.9------ 75.6- 62.2---
2024-07-21 02:36 pmNNW 6.0 9.9------ 76.1- 63.1---
2024-07-21 02:30 pmNNW 6.0 8.9------ 75.9- 63.0---
2024-07-21 02:24 pmNNW 5.1 8.0------ 76.8- 63.9---
2024-07-21 02:18 pmNNW 6.0 9.9------ 76.1- 63.7---
2024-07-21 02:12 pmNNW 4.1 8.0------ 77.0- 64.6---
2024-07-21 02:06 pmNNW 7.0 8.9------ 75.2- 63.9---
2024-07-21 02:00 pmNNW 5.1 9.9------------
2024-07-21 01:54 pmNNW 6.0 11.1------------
2024-07-21 01:48 pmNNW 6.0 9.9------------
2024-07-21 01:42 pm NW 6.0 9.9------------
2024-07-21 01:36 pmNNW 5.1 8.9------------
2024-07-21 01:30 pmNNW 6.0 8.9------ 74.3- 64.2---
2024-07-21 01:24 pmNNW 6.0 9.9------ 74.3- 64.0---
2024-07-21 01:18 pm N 4.1 7.0------ 75.2- 64.6---
2024-07-21 01:12 pm N 4.1 7.0------ 75.6- 65.1---
2024-07-21 01:06 pm N 4.1 7.0------ 75.6- 65.3---
2024-07-21 01:00 pmNNW 5.1 8.0------ 75.4- 65.3---
2024-07-21 12:54 pm NW 4.1 6.0------ 75.2- 65.1---
2024-07-21 12:48 pmNNW 5.1 7.0------ 75.2- 64.6---
2024-07-21 12:42 pm N 4.1 6.0------ 76.5- 64.0---
2024-07-21 12:36 pm NE 4.1 6.0------ 76.3- 63.1---
2024-07-21 12:30 pm NE 2.9 7.0------ 76.6- 63.7---
2024-07-21 12:24 pmENE 1.9 6.0------ 77.0- 64.4---
2024-07-21 12:18 pm S 1.0 5.1------ 76.5- 64.6---
2024-07-21 12:12 pm E 4.1 6.0------ 76.3- 64.0---
2024-07-21 12:06 pm E 2.9 5.1------ 76.1- 64.2---
2024-07-21 12:00 pm E 4.1 6.0------ 75.6- 63.3---
2024-07-21 11:54 amENE 1.9 4.1------ 76.3- 64.0---
2024-07-21 11:48 am NE 2.9 6.0------ 76.3- 63.5---
2024-07-21 11:42 am N 1.0 4.1------ 77.0- 63.7---
2024-07-21 11:36 amNNE 4.1 5.1------ 75.2- 63.0---
2024-07-21 11:30 am N 2.9 5.1------ 75.7- 63.1---
2024-07-21 11:24 am NE 1.9 8.0------ 75.6- 63.5---
2024-07-21 11:18 am E 5.1 7.0------ 73.9- 62.6---
2024-07-21 11:12 amENE 2.9 6.0------ 73.8- 62.8---
2024-07-21 11:06 amENE 5.1 7.0------ 73.4- 63.0---
2024-07-21 11:00 am E 7.0 8.0------ 72.3- 62.2---
2024-07-21 10:54 am E 7.0 8.9------ 72.7- 62.2---